Weather History for West Plains, MO

Change the Weather History Date:

Saturday, June 7, 2014

  Actual Average Record
Temperature  
Mean Temperature 75 °F 72 °F  
Max Temperature 84 °F 82 °F 92 °F (1953)
Min Temperature 66 °F 61 °F 44 °F (1998)
Degree Days  
Heating Degree Days 0 0  
Month to date heating degree days 0 4  
Since 1 June heating degree days 0 4  
Since 1 July heating degree days 4857 4346  
Cooling Degree Days 10 7  
Month to date cooling degree days 62 44  
Year to date cooling degree days 212 166  
Since 1 June cooling degree days 62 44  
Growing Degree Days 23 (Base 50)    
Moisture  
Dew Point 66 °F    
Average Humidity 78    
Maximum Humidity 100    
Minimum Humidity 55    
Precipitation  
Precipitation 0.16 in 0.13 in 1.30 in (1951)
Month to date precipitation 1.17 0.90  
Year to date precipitation 13.15 20.17  
Sea Level Pressure  
Sea Level Pressure 29.91 in    
Wind  
Wind Speed 7 mph (South)    
Max Wind Speed 18 mph    
Max Gust Speed 28 mph    
Visibility 6 miles    
Events Fog , Rain , Thunderstorm    
T = Trace of Precipitation, MM = Missing Value Source: NWS Daily Summary

Daily Weather History Graph

Daily Weather History Graph

Search for Another Location

Airport:

Trip Planner

Search our weather history database for the weather conditions in past years. The results will help you decide how hot, cold, wet, or windy it might be!

Date:

Astronomy

Jun. 07, 2014 Rise Set
Actual Time 5:48 AM CDT 8:24 PM CDT
Civil Twilight 5:17 AM CDT 8:55 PM CDT
Nautical Twilight 4:39 AM CDT 9:33 PM CDT
Astronomical Twilight 3:57 AM CDT 10:15 PM CDT
Moon 2:50 PM CDT (6/7) 2:01 AM CDT (6/7)
Length of Visible Light 15h 37m
Length of Day
14h 36m
Waxing Gibbous, 68% of the Moon is Illuminated
Jun 7
Waxing Gibbous
Jun 12
Full
Jun 19
Last Quarter
Jun 27
New
Jul 5
First Quarter

Hourly Weather History & Observations

Time (CDT) Temp. Heat Index Dew Point Humidity Pressure Visibility Wind Dir Wind Speed Gust Speed Precip Events Conditions
12:03 AM 66.9 °F - 66.0 °F 97% 29.97 in 1.0 mi Calm Calm - N/A   Mist
12:12 AM 66.9 °F - 66.0 °F 97% 29.97 in 1.8 mi Calm Calm - N/A   Overcast
12:24 AM 66.0 °F - 64.9 °F 96% 29.97 in 0.8 mi Calm Calm - N/A   Overcast
12:34 AM 66.0 °F - 64.0 °F 93% 29.97 in 0.5 mi Calm Calm - N/A Fog Fog
12:48 AM 64.4 °F - 64.4 °F 100% 29.97 in 0.2 mi Calm Calm - N/A Fog Fog
12:53 AM 64.9 °F - 64.0 °F 97% 29.94 in 0.2 mi ENE 3.5 mph - N/A Fog Fog
1:53 AM 66.9 °F - 66.0 °F 97% 29.94 in 0.2 mi ENE 3.5 mph - N/A Fog Fog
2:53 AM 68.0 °F - 66.9 °F 96% 29.94 in 0.5 mi Calm Calm - N/A Fog Fog
2:59 AM 68.0 °F - 66.9 °F 96% 29.97 in 1.2 mi Calm Calm - N/A   Overcast
3:31 AM 68.0 °F - 66.9 °F 96% 29.97 in 2.0 mi Calm Calm - N/A   Overcast
4:04 AM 68.0 °F - 66.0 °F 93% 29.96 in 3.0 mi SSW 3.5 mph - N/A   Overcast
4:19 AM 68.0 °F - 66.0 °F 93% 29.95 in 3.0 mi SE 3.5 mph - N/A   Overcast
4:53 AM 66.9 °F - 66.0 °F 97% 29.91 in 4.0 mi SE 3.5 mph - N/A   Overcast
5:34 AM 66.9 °F - 64.9 °F 93% 29.94 in 3.0 mi ESE 4.6 mph - N/A   Overcast
5:53 AM 66.9 °F - 64.9 °F 93% 29.91 in 5.0 mi SSE 4.6 mph - N/A   Overcast
6:08 AM 66.9 °F - 64.9 °F 93% 29.95 in 4.0 mi SE 3.5 mph - N/A   Overcast
6:33 AM 66.0 °F - 64.9 °F 96% 29.95 in 2.5 mi SE 4.6 mph - N/A   Overcast
7:00 AM 66.9 °F - 64.9 °F 93% 29.96 in 2.0 mi SE 3.5 mph - N/A   Overcast
7:16 AM 66.9 °F - 64.9 °F 93% 29.94 in 2.0 mi East 6.9 mph - N/A   Overcast
7:27 AM 66.9 °F - 64.9 °F 93% 29.95 in 1.8 mi SSE 4.6 mph - N/A   Overcast
7:38 AM 66.9 °F - 64.9 °F 93% 29.89 in 1.0 mi East 12.7 mph - N/A   Overcast
8:32 AM 66.9 °F - 66.0 °F 97% 29.90 in 1.2 mi SE 8.1 mph - N/A   Overcast
8:46 AM 68.0 °F - 66.0 °F 93% 29.92 in 3.0 mi SSE 10.4 mph - N/A   Overcast
8:53 AM 68.0 °F - 66.0 °F 93% 29.89 in 5.0 mi South 9.2 mph - N/A   Overcast
9:24 AM 70.0 °F - 66.0 °F 87% 29.94 in 10.0 mi SE 9.2 mph 19.6 mph N/A   Overcast
9:32 AM 69.1 °F - 66.0 °F 90% 29.93 in 10.0 mi SE 10.4 mph - N/A Thunderstorm Overcast
9:48 AM 69.8 °F - 66.2 °F 88% 29.93 in 10.0 mi South 8.1 mph - 0.00 in Thunderstorm Thunderstorm
9:53 AM 69.1 °F - 66.0 °F 90% 29.90 in 10.0 mi South 6.9 mph - 0.00 in Thunderstorm Thunderstorm
10:12 AM 68.0 °F - 66.0 °F 93% 29.93 in 1.8 mi Variable 3.5 mph - 0.12 in Rain , Thunderstorm Heavy Thunderstorms and Rain
10:20 AM 68.0 °F - 66.0 °F 93% 29.93 in 2.5 mi Calm Calm - 0.13 in Rain , Thunderstorm Thunderstorms and Rain
10:27 AM 68.0 °F - 66.0 °F 93% 29.92 in 7.0 mi East 3.5 mph - 0.14 in Rain , Thunderstorm Light Thunderstorms and Rain
10:38 AM 68.0 °F - 66.0 °F 93% 29.92 in 10.0 mi Variable 5.8 mph - 0.14 in Thunderstorm Overcast
10:45 AM 68.0 °F - 66.0 °F 93% 29.92 in 10.0 mi ESE 4.6 mph - 0.14 in Rain Light Rain
10:53 AM 69.1 °F - 66.0 °F 90% 29.89 in 6.0 mi SE 3.5 mph - 0.15 in Rain Light Rain
11:01 AM 69.1 °F - 66.0 °F 90% 29.92 in 6.0 mi ESE 4.6 mph - 0.01 in Rain Light Rain
11:37 AM 73.0 °F - 68.0 °F 84% 29.91 in 10.0 mi SE 5.8 mph - 0.01 in   Overcast
11:50 AM 73.4 °F - 69.8 °F 88% 29.91 in 10.0 mi SSE 4.6 mph - 0.01 in   Overcast
11:53 AM 73.9 °F - 69.1 °F 85% 29.87 in 10.0 mi SSE 3.5 mph - 0.01 in   Overcast
12:53 PM 79.0 °F - 71.1 °F 77% 29.85 in 10.0 mi WSW 8.1 mph - N/A   Mostly Cloudy
1:15 PM 78.1 °F - 71.1 °F 79% 29.88 in 10.0 mi SSW 6.9 mph - N/A Thunderstorm Mostly Cloudy
1:53 PM 79.0 °F - 71.1 °F 77% 29.84 in 10.0 mi WSW 9.2 mph - 0.00 in Thunderstorm Mostly Cloudy
2:01 PM 79.0 °F - 71.1 °F 77% 29.87 in 10.0 mi SW 10.4 mph - N/A   Mostly Cloudy
2:49 PM 80.6 °F 84.6 °F 71.6 °F 74% 29.85 in 10.0 mi WSW 9.2 mph 20.7 mph N/A   Mostly Cloudy
2:53 PM 80.1 °F 83.6 °F 71.1 °F 74% 29.81 in 10.0 mi WSW 6.9 mph 16.1 mph N/A   Mostly Cloudy
3:14 PM 81.0 °F 85.2 °F 72.0 °F 74% 29.85 in 10.0 mi SW 10.4 mph 21.9 mph N/A   Scattered Clouds
3:53 PM 82.9 °F 86.5 °F 69.1 °F 63% 29.80 in 10.0 mi WSW 12.7 mph 26.5 mph N/A   Mostly Cloudy
4:53 PM 81.0 °F 83.3 °F 66.9 °F 62% 29.81 in 10.0 mi West 16.1 mph 24.2 mph N/A   Mostly Cloudy
5:53 PM 82.0 °F 83.8 °F 64.9 °F 56% 29.81 in 10.0 mi West 12.7 mph 18.4 mph N/A   Clear
6:53 PM 79.0 °F - 63.0 °F 58% 29.82 in 10.0 mi West 10.4 mph - N/A   Clear
7:53 PM 75.0 °F - 64.0 °F 69% 29.83 in 10.0 mi West 6.9 mph - N/A   Clear
8:53 PM 71.1 °F - 64.0 °F 78% 29.84 in 10.0 mi West 4.6 mph - N/A   Clear
9:53 PM 71.1 °F - 64.0 °F 78% 29.88 in 10.0 mi WNW 8.1 mph - N/A   Clear
10:53 PM 68.0 °F - 63.0 °F 84% 29.90 in 10.0 mi West 4.6 mph - N/A   Clear
11:53 PM 68.0 °F - 62.1 °F 81% 29.91 in 10.0 mi NW 5.8 mph - N/A   Clear